Погода в Тёмкино

Россия / Смоленская область     55°06′43″N   35°00′55″E
темп.,
°C
ветер,
м/с
пор.,
м/с
влажн.,
%
обл.,
%
осадки,
мм/ч
давл.,
гПа
погр.,
м
14 июня, пн
пн1400:00+14ююв229729 0.3 100925
03:00+13ююв1197100 0.3 101011
06:00+15юв119452 0.0 101160
09:00+21ю117248 0.0 1013538
12:00+25юз225217 0.0 10141537
15:00+26з2245100 0.2 10132375
18:00+20всв227860 0.2 101439
21:00+18св118799 0.7 101414
15 июня, вт
вт1500:00+17св118999 0.0 101521
03:00+15ссв11955 0.0 101412
06:00+17ссз01910 0.0 101446
09:00+22сз11682 0.0 1014536
12:00+25з22575 0.3 10121466
15:00+25сз236142 1.5 10121262
18:00+23зсз127262 1.5 1010498
21:00+18сз239251 2.8 101144
16 июня, ср
ср1600:00+15сз22950 0.0 101126
03:00+14ссз269664 0.0 1011122
06:00+14ссз3994100 0.0 1013266
09:00+19с457062 0.0 1014689
12:00+22ссз445784 0.1 10151462
15:00+22ссз554623 0.1 10161561
18:00+21ссз355068 0.0 10171097
21:00+15св2274100 0.0 101921
17 июня, чт
чт1700:00+13ссв237385 0.0 102154
03:00+11св23755 0.0 102348
06:00+12св12710 0.0 102469
09:00+19св23470 0.0 1024594
12:00+23ссв22355 0.0 10251654
15:00+25с11340 0.0 10251918
18:00+23ссз33500 0.0 1025621
21:00+16св227997 0.0 102619
18 июня, пт
пт1800:00+14юв11852 0.0 102711
03:00+12юз11926 0.0 102810
06:00+15з11820 0.0 102840
09:00+21юз11560 0.0 1028489
12:00+25ююз224275 0.0 10281640
15:00+26юз22405 0.0 10272036
18:00+25ююз2351100 0.0 10261281
21:00+19ю2581100 0.0 102791